Theta_e
339 340 338 337 337 338 337 338 338 337 336 334 329 319 314 315 317 319 323 325 325 325 326 326 327 327 327 327 326 326 326 326 326 326 326 326 327 327 326 326 325 326 325 325 326 327 327 328 327 326 327 327 325 326 327 327 327 326 327 327 327 327 328 327 326 326 328 327 327 326 326 325 326 328 329 328 326 324 324 325 325 325 324 323 325
340 339 339 337 338 337 337 338 337 336 334 329 320 316 317 320 322 325 326 327 326 326 326 326 326 326 326 326 326 326 326 325 326 326 326 326 326 326 326 325 325 326 326 327 329 330 330 329 329 328 328 328 326 326 327 327 327 326 325 326 327 327 327 327 327 327 328 327 325 323 323 323 325 326 328 328 325 323 323 324 324 324 324 324 325
339 339 338 337 337 337 338 337 335 335 330 322 317 319 323 324 326 326 326 326 327 326 326 326 326 326 326 326 326 325 325 325 325 325 325 326 326 325 325 325 325 325 327 330 331 332 332 330 330 330 328 327 326 326 327 326 326 325 325 325 327 327 326 326 326 326 325 325 323 322 323 324 325 326 328 327 323 323 323 323 323 324 325 326 325
339 338 337 337 337 337 336 336 334 332 324 319 320 324 326 326 326 325 325 325 326 326 325 325 325 326 326 325 325 326 326 327 327 326 326 326 327 326 326 326 326 326 328 331 332 331 331 330 329 328 327 326 325 326 326 325 325 324 325 325 327 326 325 324 324 324 324 324 324 324 324 324 324 325 327 325 321 321 320 321 323 325 326 327 326
338 338 338 337 337 336 335 334 331 326 320 321 325 327 327 327 326 325 325 325 325 325 325 325 325 325 325 325 325 327 327 329 329 328 328 328 327 327 327 327 328 328 329 331 332 332 331 330 329 327 327 326 325 325 325 325 324 324 324 325 326 325 325 324 323 324 324 324 324 324 325 324 323 323 322 321 320 319 319 321 323 324 325 327 327
338 338 338 337 336 334 332 331 328 324 322 324 327 327 327 326 326 326 325 325 325 324 324 325 325 324 325 325 325 327 328 330 331 330 329 329 329 328 328 328 330 330 330 332 332 331 330 329 328 327 327 326 324 324 323 324 324 323 323 325 325 324 324 323 323 323 323 323 323 323 323 321 320 322 321 320 322 321 322 324 322 322 325 327 327
337 337 336 336 333 328 328 328 327 325 326 327 328 327 326 326 326 326 325 326 325 325 325 325 326 325 325 325 326 327 329 331 331 332 330 330 329 329 330 330 331 331 331 331 331 331 330 328 327 327 326 325 324 323 323 323 323 322 324 324 323 324 324 323 322 321 321 322 322 323 322 320 319 322 324 324 324 325 325 324 322 322 325 326 326
337 337 335 333 330 328 329 328 327 326 328 329 328 327 326 327 327 326 325 325 325 327 327 326 326 326 326 326 327 328 330 331 331 332 331 330 330 330 330 330 330 330 330 329 329 329 328 327 326 325 325 324 323 323 323 323 322 322 323 324 323 323 323 322 321 321 321 322 323 322 321 320 318 322 326 324 325 326 323 321 321 323 324 325 326
337 336 334 331 330 331 331 329 328 327 328 328 327 326 326 326 328 327 325 325 325 326 328 328 327 327 327 327 327 327 329 331 330 331 331 331 331 330 329 329 329 328 328 327 327 327 327 326 325 324 324 324 323 324 324 323 322 322 323 324 322 322 322 321 322 322 321 322 323 321 320 319 319 324 325 322 322 323 321 320 322 324 325 325 326
337 335 333 332 331 331 330 330 329 328 328 326 326 326 325 327 328 327 325 325 325 325 326 327 328 328 327 327 327 327 329 330 329 329 329 329 329 329 328 328 327 327 327 326 326 326 325 325 324 324 324 323 324 324 324 324 323 322 323 323 322 322 322 322 322 323 322 322 321 320 319 319 322 324 322 320 320 320 320 322 324 325 325 326 326
336 334 333 332 330 330 329 329 328 328 327 326 325 325 326 327 328 327 325 324 324 325 325 327 328 327 327 327 327 326 327 328 327 327 327 328 327 327 327 326 325 325 325 325 324 324 324 324 323 323 323 323 323 324 323 323 323 322 323 322 322 322 322 321 322 322 322 321 320 320 319 321 323 322 320 319 318 319 320 322 324 325 325 326 326
336 334 332 331 329 328 328 327 326 326 326 325 325 325 326 327 328 326 325 324 324 325 324 326 326 326 326 326 326 325 327 327 326 326 326 326 325 325 325 324 324 324 324 324 323 323 323 323 323 323 323 323 324 324 322 322 322 322 322 321 321 321 321 321 322 322 322 321 320 319 319 321 323 321 319 318 318 318 319 322 324 325 325 325 325
336 334 332 331 328 327 326 326 326 326 326 326 326 326 326 327 326 325 325 324 324 325 324 325 326 325 325 325 325 325 326 325 324 324 324 324 323 324 324 323 323 324 323 323 323 323 323 323 323 323 323 323 323 323 322 322 322 321 321 321 321 321 321 321 321 321 321 320 320 319 319 321 322 320 317 317 317 316 318 323 324 324 324 324 323
335 334 333 331 328 326 325 324 323 323 324 325 325 326 327 327 325 325 325 323 324 324 324 325 325 325 325 324 324 324 324 323 322 322 323 323 322 323 323 323 323 323 323 323 323 323 323 323 323 323 323 323 323 322 321 320 320 320 320 320 320 320 320 320 320 320 320 320 320 319 319 322 321 318 317 317 315 317 322 323 323 322 323 323 323
334 333 332 330 328 327 325 323 321 320 322 322 322 325 328 326 324 325 324 323 324 324 325 325 324 325 324 323 322 322 321 321 321 321 323 322 323 323 323 323 322 322 323 322 322 322 323 323 323 323 322 321 320 318 317 316 317 318 317 317 315 315 316 318 320 320 320 321 320 318 320 323 320 317 318 316 315 321 323 322 322 322 323 323 323
332 329 327 327 328 327 326 325 322 323 322 322 324 326 327 325 324 324 323 323 323 324 324 324 324 324 323 322 321 321 320 320 320 321 322 322 322 323 322 322 322 322 322 322 320 319 320 320 319 317 316 315 313 313 313 314 316 316 316 316 313 313 315 318 320 320 321 321 319 318 321 321 319 318 318 314 317 322 323 321 322 322 323 323 323
329 327 325 325 326 327 327 326 324 325 324 325 328 328 326 324 324 323 322 322 323 323 324 324 323 321 321 320 320 320 320 319 318 320 321 320 321 323 321 321 321 320 318 317 315 314 314 314 312 311 311 312 312 312 314 315 317 317 317 316 315 316 318 319 319 321 321 320 318 319 319 320 319 318 317 314 317 322 321 321 322 322 322 322 323
328 326 325 325 325 325 325 325 324 327 327 327 327 326 324 322 322 321 320 320 320 322 324 323 320 319 320 319 320 320 321 320 318 320 321 317 318 320 318 316 317 314 312 312 311 311 311 312 312 311 312 314 315 315 316 316 317 317 317 317 317 318 319 319 320 321 320 319 318 319 319 319 318 317 317 315 317 320 321 321 322 322 322 322 323
327 326 325 323 324 325 324 324 324 328 330 327 326 325 322 321 322 321 321 320 317 319 321 321 319 319 320 320 321 321 322 321 318 320 321 317 315 316 315 313 313 311 312 315 313 312 312 314 315 314 315 316 316 316 317 317 317 318 317 317 318 318 319 320 321 321 319 319 318 320 321 319 318 317 317 316 317 320 320 321 321 321 322 322 323
327 327 325 322 324 324 324 325 324 327 327 326 326 325 322 322 324 322 322 321 319 320 321 321 320 321 321 321 321 320 321 321 318 319 321 320 317 318 317 317 317 314 314 317 317 315 314 315 316 316 316 316 317 317 317 318 319 318 318 318 319 319 319 320 320 319 319 319 318 321 321 319 318 317 317 317 318 320 320 321 321 322 322 322 322
328 326 324 323 324 323 324 326 324 325 325 324 325 325 323 323 325 324 322 323 322 322 322 322 322 322 321 321 322 319 319 322 319 318 321 321 319 320 319 318 319 318 315 316 318 318 316 316 316 316 316 317 318 319 320 321 321 320 319 319 320 320 320 321 319 318 319 319 318 320 320 318 318 318 317 317 318 320 320 320 322 322 322 322 322
328 326 325 325 325 324 325 326 325 326 325 325 325 325 324 324 326 325 323 323 324 323 322 323 322 322 321 320 322 320 319 322 320 320 320 321 320 321 320 319 319 320 317 316 317 319 318 317 318 317 317 318 320 321 321 321 322 321 321 321 321 322 322 321 319 319 319 318 319 320 319 318 318 318 318 317 317 320 321 321 322 322 322 322 322
326 327 326 323 324 326 325 325 325 326 326 325 324 325 325 324 325 324 324 324 324 323 322 322 322 321 321 320 321 320 320 321 321 320 321 322 322 321 321 321 320 321 319 317 319 321 319 319 320 319 319 320 321 321 319 318 320 321 321 321 322 322 321 320 319 319 319 319 319 320 320 318 318 318 318 317 318 321 321 321 322 321 321 321 321
323 327 327 322 323 326 325 326 325 325 326 324 323 325 324 323 325 324 324 324 323 323 322 322 321 320 321 321 320 320 320 321 321 320 321 322 322 321 322 322 322 322 321 319 320 321 319 320 321 320 321 321 319 318 317 317 318 319 319 319 320 320 320 319 319 319 319 319 318 319 319 319 319 318 318 317 318 321 321 320 321 321 321 321 321
323 322 325 323 323 324 325 326 326 325 325 324 324 325 323 323 325 323 323 324 322 322 322 323 321 319 320 320 320 321 320 321 321 320 320 321 321 320 320 322 321 322 320 319 320 319 319 320 320 320 320 319 318 318 317 317 318 317 317 318 318 318 319 319 319 319 319 319 318 318 319 320 319 318 318 317 318 321 321 320 320 320 321 320 321
321 321 325 325 324 325 326 326 325 326 326 326 325 323 323 324 324 321 322 323 322 322 322 322 321 319 320 319 318 321 321 320 320 320 320 320 320 319 319 320 320 319 318 319 320 319 318 319 319 319 319 318 318 318 317 318 318 317 317 317 318 318 319 319 318 319 319 318 318 317 319 319 319 319 319 318 319 321 320 319 320 320 321 321 321
322 323 324 323 324 325 326 327 326 326 325 324 324 324 324 324 322 321 321 320 321 322 321 320 321 320 320 318 318 320 320 320 319 320 320 320 319 319 319 319 320 319 318 319 319 319 319 319 320 319 318 318 317 317 317 317 317 317 317 317 317 318 319 319 318 318 318 318 317 317 318 318 319 319 319 319 319 319 319 319 319 320 320 321 321
324 323 323 321 324 326 325 327 327 326 326 323 323 324 322 322 323 323 321 320 321 321 320 321 321 320 319 319 319 319 319 319 319 319 320 319 319 319 319 319 319 319 319 318 318 318 319 319 319 318 318 318 318 317 317 317 317 317 317 316 317 317 317 318 318 318 317 317 317 317 318 319 319 319 319 319 318 318 319 320 320 320 320 320 320
323 321 324 323 325 327 325 326 327 326 326 324 324 323 321 322 324 323 322 322 322 320 319 321 321 320 319 319 319 319 319 318 318 319 319 319 318 318 319 319 318 318 318 318 317 317 318 318 318 317 318 318 318 318 317 318 318 317 317 317 316 315 316 318 318 318 317 317 317 317 318 318 318 318 318 318 318 318 319 320 320 320 320 319 320
322 322 323 326 327 326 326 327 328 326 324 323 325 325 322 323 324 322 323 322 321 320 321 321 320 320 319 319 319 318 318 318 318 319 318 319 319 318 318 318 318 318 318 317 317 317 317 317 317 317 317 317 317 317 317 318 317 317 317 316 315 316 316 317 317 317 317 316 317 317 317 318 318 318 318 318 318 318 319 320 320 320 320 319 319
324 322 322 328 327 325 327 327 327 326 324 324 325 324 322 322 323 322 322 320 320 321 322 321 319 320 319 319 319 318 318 318 318 318 318 318 318 318 318 318 318 317 317 317 317 317 317 317 317 316 317 317 317 317 317 317 317 317 316 315 315 316 316 316 316 316 317 316 317 317 317 317 318 318 318 317 318 319 319 320 320 320 319 319 319
323 321 324 328 325 327 329 326 327 326 324 326 324 323 322 320 321 323 322 320 321 322 321 320 320 319 319 318 318 318 318 318 318 318 318 318 318 318 318 318 317 317 317 317 317 317 317 317 317 317 317 317 317 317 317 316 316 317 315 315 316 316 316 316 316 317 317 316 316 316 317 317 317 317 317 317 318 319 319 319 319 319 319 319 318
322 322 327 328 325 328 328 326 326 324 324 327 324 324 324 321 322 323 321 320 321 321 320 320 319 319 319 318 318 318 318 318 318 318 318 318 318 318 318 317 317 317 317 317 318 317 317 317 317 317 317 316 316 316 316 316 316 316 315 315 316 316 316 316 317 317 316 316 316 316 317 317 317 317 317 318 318 319 319 318 318 318 319 318 318
323 325 326 325 326 327 327 326 324 323 324 325 324 324 324 323 323 323 321 320 321 321 319 320 320 319 319 318 318 318 318 318 318 317 318 318 318 318 317 318 317 317 317 317 317 317 317 317 317 317 317 317 317 316 316 316 316 316 315 315 316 315 315 316 316 316 316 316 316 316 316 316 316 317 317 318 318 318 318 317 318 318 318 318 318
325 326 325 325 326 327 327 325 322 325 324 322 324 323 323 324 322 321 320 320 321 321 320 319 320 319 319 319 318 318 319 318 318 318 318 318 318 318 317 317 317 317 318 317 317 317 317 317 317 317 317 316 317 316 316 316 316 315 315 315 316 315 315 316 316 316 316 316 316 315 316 316 316 317 317 317 317 317 317 317 318 318 318 318 318
326 327 325 326 328 326 325 325 322 326 325 322 326 324 322 324 322 320 321 321 321 320 320 320 320 319 318 319 318 318 318 318 318 318 318 318 318 318 318 317 317 318 318 317 318 318 317 317 317 317 317 316 316 316 316 316 315 315 315 315 316 315 315 316 316 316 315 315 315 315 316 316 316 316 317 317 317 318 318 318 319 319 318 318 317
325 326 325 324 328 326 324 327 325 326 326 323 325 323 321 322 322 321 321 322 321 320 320 320 319 319 318 318 319 319 318 318 318 318 318 318 318 318 318 318 317 318 318 318 318 318 317 316 317 317 316 316 316 316 316 315 315 315 315 315 315 315 316 316 316 316 315 315 315 314 314 314 315 317 317 317 319 319 318 317 318 318 318 318 318
324 325 326 323 328 328 324 327 328 326 326 325 324 324 322 322 323 322 322 322 321 320 319 319 320 319 319 318 319 319 319 318 318 318 318 318 318 318 318 318 318 318 318 318 318 318 317 316 316 316 316 316 316 316 315 315 315 315 315 315 315 315 316 316 316 315 314 314 314 314 314 314 316 317 317 318 319 319 318 318 318 318 318 318 317
324 325 327 325 328 328 325 326 328 327 326 326 325 324 323 322 322 323 322 321 322 321 319 320 320 319 319 318 319 319 319 319 318 318 318 317 318 318 318 318 318 318 319 318 318 318 317 316 316 315 315 316 316 315 315 314 314 315 315 314 315 315 315 316 315 313 313 313 314 314 314 315 316 316 317 318 319 318 318 318 317 316 317 317 317
325 325 324 325 328 329 328 327 326 327 327 325 325 324 324 323 322 323 322 321 321 320 320 320 319 319 319 318 318 318 319 318 318 318 318 318 318 318 318 318 318 318 319 319 318 318 317 316 316 315 315 316 316 315 314 314 314 314 314 314 314 314 314 315 313 311 312 314 314 313 313 315 316 316 317 317 317 316 317 317 317 316 316 316 316
326 325 323 324 328 329 328 328 326 327 327 326 326 325 325 324 323 322 321 322 321 320 321 320 320 320 319 318 318 318 318 318 318 318 318 318 319 318 319 318 318 318 319 319 318 317 317 316 316 315 315 316 316 316 314 314 314 314 314 314 313 313 314 315 312 310 312 313 312 313 313 314 316 316 316 316 315 315 317 317 316 316 317 316 315
328 326 324 325 329 328 326 328 328 327 326 326 327 327 327 326 326 324 322 322 323 321 321 321 320 320 319 319 319 318 318 318 318 318 318 318 319 318 318 318 318 318 318 318 318 317 317 316 316 315 315 316 316 315 314 314 314 314 315 314 314 313 313 314 312 311 313 312 312 313 312 313 315 316 316 316 314 313 315 315 314 316 317 316 314
330 327 326 326 327 328 327 327 327 326 324 324 326 327 326 326 327 327 325 325 325 321 321 321 320 320 319 319 319 318 318 318 318 318 318 319 318 318 318 318 318 318 318 317 318 318 316 316 316 315 315 316 316 315 314 314 314 314 314 314 315 314 314 314 312 311 312 311 312 312 312 314 315 315 316 317 316 313 313 313 313 315 316 315 314
332 330 328 327 327 328 327 328 328 326 326 326 323 323 326 326 327 326 324 324 324 322 320 320 320 320 320 320 319 319 318 318 318 318 318 318 318 318 318 318 318 317 317 317 317 317 317 316 316 315 315 316 316 315 314 314 314 314 314 314 314 314 314 314 312 312 311 311 312 312 313 315 315 315 316 317 318 316 313 313 314 314 316 315 314
334 332 330 328 327 327 327 328 328 326 326 326 322 322 326 327 326 324 321 320 321 321 320 321 321 321 320 320 320 319 319 319 318 318 319 319 319 319 319 318 318 318 318 318 317 317 317 316 316 315 315 316 316 316 315 314 314 313 313 314 313 314 314 313 312 313 311 311 313 313 313 315 314 315 315 315 317 316 313 314 314 315 316 315 314
334 333 331 329 327 328 328 328 329 327 325 325 323 323 326 325 324 325 323 322 323 323 323 323 323 321 320 321 321 320 319 319 319 319 319 319 319 319 319 318 318 318 318 318 317 318 318 317 316 315 315 315 316 316 315 314 313 312 312 312 312 312 314 314 313 313 312 311 313 313 314 315 314 315 314 314 316 315 314 314 314 315 316 314 313
334 334 332 329 327 327 328 326 328 327 324 325 324 324 326 326 326 326 326 326 326 324 323 324 324 321 320 321 321 320 319 319 320 320 319 319 319 319 319 319 319 319 319 317 317 318 318 317 316 315 315 315 315 315 315 314 313 313 312 311 311 310 311 313 314 314 313 313 313 314 314 314 314 314 313 314 315 315 314 314 314 315 315 314 314
334 334 332 330 326 326 327 325 327 326 323 325 325 323 326 328 327 327 327 327 326 325 324 324 324 323 322 321 321 321 321 321 320 320 320 319 319 319 319 319 319 319 319 317 317 318 317 317 316 316 315 315 315 315 314 314 314 314 312 312 311 310 310 311 312 313 314 314 314 314 314 314 314 314 313 314 315 314 314 315 314 314 314 314 314
334 334 333 331 327 325 326 325 326 325 323 325 325 323 325 327 328 327 327 326 325 325 325 324 324 324 323 323 322 322 321 321 321 321 320 319 319 319 319 319 319 319 319 317 317 318 317 317 316 316 316 315 315 314 314 313 314 314 313 312 312 310 310 311 311 312 314 315 314 314 314 314 314 313 313 314 315 314 314 315 314 312 313 314 314
334 334 334 333 329 326 325 325 325 325 324 324 324 324 324 325 327 327 327 327 327 326 325 324 324 324 324 324 323 323 322 322 322 321 321 319 320 320 319 319 319 319 318 317 317 317 315 316 316 316 315 315 314 314 313 313 313 313 312 312 312 311 311 312 312 313 314 314 314 314 314 314 314 314 313 313 315 314 315 314 313 312 312 314 313
335 334 334 334 332 329 326 325 325 325 325 323 322 324 324 324 325 326 326 326 326 326 325 324 324 324 325 324 324 324 323 322 321 321 321 320 320 320 319 319 318 318 318 317 317 315 314 315 315 315 315 314 314 313 313 313 313 312 312 311 311 310 311 313 313 313 314 314 314 314 314 314 314 314 313 312 313 315 315 313 312 313 313 314 312
Wind_Speed
9 9 9 8 8 8 8 8 8 8 5 3 6 8 10 10 12 12 12 12 13 12 12 11 11 11 11 10 10 10 10 10 11 11 11 11 10 10 9 8 8 8 6 6 8 9 8 8 10 10 10 11 11 12 13 12 12 13 13 14 13 13 14 13 13 14 14 13 15 16 16 17 15 14 11 8 7 8 10 11 13 17 18 17 18
9 9 8 8 9 8 8 8 8 7 4 4 7 9 10 11 11 11 11 11 12 12 12 11 11 11 11 10 10 10 10 10 10 10 10 10 10 10 10 9 8 9 8 8 9 10 10 9 11 11 10 11 11 12 13 12 12 12 12 12 12 12 13 13 13 14 14 14 17 16 16 15 14 14 10 4 6 8 9 11 14 18 18 18 19
11 10 8 8 9 9 8 8 8 6 4 7 8 9 10 10 10 10 10 9 10 11 11 11 10 10 10 9 10 10 10 11 10 10 10 9 10 9 10 9 9 8 8 10 10 10 11 10 10 10 9 10 10 11 12 12 12 12 12 12 12 12 12 13 13 14 14 16 17 16 15 15 16 11 4 2 5 6 9 13 16 18 19 19 19
10 10 8 8 9 9 9 8 7 4 5 8 9 10 9 9 10 9 9 9 9 9 10 10 10 9 9 8 8 10 11 11 10 9 9 9 9 9 9 9 9 8 9 10 10 9 10 9 9 9 9 10 10 11 12 11 12 11 12 12 12 12 11 13 14 15 16 17 16 16 15 15 13 7 4 3 5 7 11 14 15 17 18 20 20
9 9 9 10 10 10 10 8 6 5 7 8 9 9 8 8 8 8 8 8 8 8 8 7 8 8 8 8 7 9 12 12 10 9 8 8 8 8 9 9 10 9 9 9 9 9 8 9 9 9 10 10 11 12 12 11 11 11 12 11 11 11 12 13 15 16 16 16 15 16 15 12 8 9 7 8 8 11 13 13 14 17 18 19 21
8 9 10 11 11 10 9 7 6 6 8 8 9 9 8 8 8 8 7 7 7 8 8 6 7 8 7 7 7 9 13 13 12 10 7 7 8 8 8 8 9 9 9 9 9 8 9 10 10 10 11 11 12 11 11 11 10 11 11 11 11 11 12 14 16 16 15 16 14 15 13 8 9 10 9 9 9 10 10 11 14 16 18 19 20
8 11 12 12 10 8 7 7 7 7 7 8 8 7 7 8 8 8 8 8 8 8 8 7 8 8 7 8 8 10 12 13 13 12 8 5 7 8 8 9 9 9 9 9 10 9 9 10 11 11 11 11 11 10 10 10 9 10 10 10 11 11 13 14 17 16 15 17 14 14 10 6 12 9 7 7 9 10 11 14 17 16 18 19 20
9 13 12 10 8 7 8 7 7 7 7 6 5 6 6 7 8 8 8 8 8 9 8 7 8 8 7 8 9 9 11 12 12 14 13 8 8 8 9 10 9 10 10 10 11 11 10 10 11 11 11 10 9 9 10 10 8 9 10 11 11 10 12 14 18 17 16 17 14 13 7 8 14 5 8 9 10 13 17 20 20 18 17 19 20
10 12 9 9 9 8 8 7 8 7 6 6 5 6 6 7 7 8 9 8 8 9 8 8 8 8 8 8 9 9 10 12 12 14 13 12 11 10 10 10 10 10 10 10 10 11 10 11 11 10 10 9 9 9 9 10 9 9 10 11 11 10 12 14 17 18 19 18 13 8 7 11 10 3 7 11 14 17 21 23 21 19 19 20 21
10 10 8 9 9 8 8 8 8 7 6 6 6 6 7 7 7 7 8 8 8 9 9 8 8 8 7 7 9 8 9 11 12 13 12 11 11 11 10 10 10 10 10 10 10 10 10 10 9 9 8 8 9 9 8 10 10 10 10 10 11 12 13 14 16 18 18 16 11 8 10 10 3 4 10 14 18 21 22 21 20 20 20 20 21
9 9 9 9 9 9 8 8 7 6 6 5 6 6 7 8 7 7 8 8 7 9 8 8 8 7 7 7 8 7 8 11 11 12 11 11 11 11 11 11 11 10 10 9 9 9 9 8 8 8 8 8 9 9 8 9 10 10 10 10 12 13 14 15 16 17 18 15 10 10 10 6 5 8 13 16 19 21 22 21 20 20 21 22 22
9 9 9 9 9 9 8 6 6 5 5 5 5 5 6 7 7 7 8 7 7 9 7 7 8 7 7 7 8 8 8 10 11 11 11 10 10 11 10 11 10 10 9 9 9 8 8 8 8 8 8 8 9 9 9 9 9 10 11 11 13 13 14 16 16 17 18 14 9 8 8 6 7 11 14 17 19 22 23 21 21 21 22 23 23
9 8 8 9 9 8 7 5 4 4 3 3 4 5 6 6 6 7 7 7 7 8 7 7 8 7 7 7 7 8 10 10 10 11 10 10 10 10 10 10 10 10 9 9 9 9 9 8 8 9 9 9 9 9 9 9 10 10 11 12 13 13 15 16 15 15 15 13 10 7 7 6 7 12 16 18 21 24 24 21 21 22 23 24 24
8 8 9 9 7 7 7 5 3 3 2 2 3 3 4 5 6 6 7 7 7 7 7 7 7 7 7 7 8 8 10 10 11 10 10 10 10 9 10 10 9 10 10 10 10 9 9 9 9 9 9 9 9 9 9 9 10 10 11 12 13 14 14 15 14 13 13 13 10 9 6 4 8 13 17 20 24 24 21 21 22 23 24 25 25
7 6 8 7 5 7 6 7 5 4 4 2 2 3 3 4 5 6 7 7 7 6 6 6 6 6 7 7 8 9 10 10 10 9 9 9 10 9 10 10 10 9 10 10 10 10 10 10 10 10 10 10 9 9 9 9 9 10 11 13 14 14 11 11 12 11 13 13 11 10 6 7 12 16 18 22 24 22 20 21 23 24 25 25 26
5 3 3 4 4 4 6 6 6 4 4 4 4 4 4 4 5 6 7 7 7 6 5 6 6 6 7 7 8 8 9 10 9 8 9 9 9 9 9 9 10 10 10 10 10 10 10 10 9 9 9 9 9 8 7 7 8 9 11 15 15 10 7 7 10 11 14 13 12 8 6 11 16 18 19 23 24 20 21 23 23 25 25 26 26
3 2 2 2 2 2 4 3 4 3 4 4 5 5 5 3 4 5 7 7 6 5 5 5 6 6 7 7 7 7 8 10 11 9 9 9 8 9 9 9 9 10 9 10 10 9 9 9 10 10 9 9 9 7 6 6 7 8 10 15 13 8 6 7 10 12 13 12 11 8 8 13 15 16 18 23 23 20 22 23 24 25 26 27 26
3 3 4 3 2 2 2 1 0 1 2 5 6 5 4 2 3 5 8 8 7 5 5 4 5 7 9 9 7 6 6 8 12 10 10 10 8 9 10 9 10 9 9 10 10 9 9 10 12 12 11 10 10 8 7 7 6 6 9 14 13 10 9 9 11 12 12 11 11 9 8 11 14 17 19 23 22 19 22 23 24 25 26 27 27
4 5 3 3 3 1 2 2 2 1 2 5 6 5 4 2 2 6 9 11 9 6 5 5 5 7 8 10 10 8 5 5 12 10 9 12 9 10 12 12 12 9 9 10 10 9 9 9 11 13 12 11 11 11 10 9 7 6 8 12 13 12 11 10 10 11 11 11 12 9 8 12 18 20 20 22 21 19 21 22 24 25 26 27 27
3 4 4 2 2 2 3 3 4 3 3 3 3 5 6 4 1 5 10 10 10 7 6 6 7 9 7 8 10 10 6 4 11 10 8 10 9 10 11 13 13 10 9 10 9 9 10 10 11 13 15 14 13 14 14 13 10 7 7 10 11 13 13 10 9 11 12 13 12 8 11 16 18 19 20 21 22 19 20 21 23 25 27 27 28
7 6 7 3 2 3 3 3 5 3 3 1 0 1 4 4 2 4 8 6 9 8 6 6 7 8 8 9 7 7 8 6 9 11 7 8 10 12 10 10 12 11 10 12 11 10 13 13 11 13 17 18 15 16 18 16 11 8 8 10 11 12 13 11 10 12 13 14 12 10 14 16 16 18 20 22 23 20 19 21 23 26 27 27 28
12 10 8 5 5 4 1 4 6 2 1 2 1 1 4 2 3 2 6 3 7 6 6 8 7 7 8 10 6 6 9 7 8 11 8 8 11 13 12 9 11 11 12 15 14 11 14 17 14 12 17 19 17 16 16 14 9 9 10 11 12 12 12 12 13 14 13 13 13 12 13 13 16 19 20 23 23 19 20 21 22 25 26 27 28
7 11 10 5 5 5 2 4 5 2 3 4 2 1 2 1 2 2 3 3 6 4 6 7 6 7 8 10 8 8 10 6 6 11 11 10 11 12 14 11 11 12 11 17 16 12 15 19 16 12 16 18 16 15 13 13 11 11 11 12 14 13 12 12 13 15 16 15 13 12 11 13 16 19 20 22 22 19 20 21 22 25 26 27 28
3 7 10 5 3 4 4 4 3 2 3 4 2 2 1 1 0 3 2 4 6 4 6 5 6 8 9 10 9 9 10 7 6 11 11 9 10 12 12 10 12 13 11 17 16 12 16 18 15 13 15 16 15 13 13 13 12 11 12 13 14 13 13 13 12 13 16 17 14 13 13 13 16 18 19 22 22 18 19 21 22 25 25 27 28
3 2 6 5 3 4 4 4 2 3 2 2 1 2 1 3 1 3 2 3 4 4 5 5 7 8 9 9 8 9 9 8 8 10 10 10 10 11 11 8 10 12 10 14 14 12 15 15 14 14 14 15 14 13 14 13 11 13 14 13 13 14 13 12 13 14 15 17 15 14 14 14 15 15 17 21 21 16 19 22 23 25 26 27 28
2 3 4 5 5 5 5 5 3 3 1 3 0 1 2 3 3 2 5 3 4 5 4 5 6 6 9 8 8 11 9 7 8 9 8 9 11 10 11 10 10 11 11 13 13 12 14 15 13 14 15 15 14 14 14 12 12 14 14 14 14 13 11 11 14 14 15 16 14 14 15 15 15 15 16 19 18 16 20 23 24 25 26 27 28
3 4 4 3 5 4 3 5 4 3 1 2 3 3 1 3 3 2 4 4 4 5 5 6 5 5 8 7 8 12 11 9 8 9 9 8 10 10 11 12 11 11 13 13 14 14 14 15 15 14 16 16 15 15 15 13 13 14 14 15 15 12 10 13 14 14 18 17 13 14 14 13 14 15 16 18 18 19 22 23 24 26 26 27 28
3 5 3 3 3 4 4 4 3 3 1 1 3 2 3 1 2 2 3 3 4 5 4 4 5 6 8 8 9 9 11 11 10 10 10 8 9 10 10 11 11 12 13 12 14 15 15 15 15 15 16 15 15 16 15 14 13 14 15 14 14 14 14 15 14 14 18 17 13 12 11 11 14 16 18 19 20 21 22 23 25 26 27 27 28
3 4 3 4 4 5 5 3 3 2 1 2 2 3 2 1 1 1 2 3 4 4 2 3 5 7 8 9 8 8 9 9 11 11 9 9 10 10 10 10 11 12 13 13 14 15 15 15 15 15 16 15 15 16 16 15 14 15 15 14 15 17 16 15 14 16 18 15 13 11 11 14 16 17 18 19 21 21 21 23 25 26 27 27 28
4 4 3 5 6 5 4 2 2 2 1 2 2 2 1 4 2 1 3 5 5 2 1 3 4 5 7 9 7 8 9 8 10 12 10 10 9 10 11 10 11 12 13 14 14 14 15 16 15 16 16 15 15 16 16 15 15 15 15 17 18 17 15 14 17 20 17 14 13 13 15 15 16 17 18 19 20 21 21 23 25 26 26 27 28
7 5 5 6 8 5 5 3 3 3 2 3 2 2 1 3 2 1 4 6 5 4 1 3 4 4 5 8 8 8 9 8 9 10 11 11 9 10 10 10 12 13 13 13 13 14 15 15 15 17 18 17 17 17 16 14 15 15 16 18 18 18 17 15 18 19 16 15 14 15 16 15 16 17 18 19 20 20 22 24 26 26 26 27 28
8 6 5 7 7 5 6 5 3 3 2 4 1 0 1 1 1 2 5 4 4 3 2 3 5 5 1 4 8 8 8 9 9 9 10 11 9 10 10 11 12 13 14 14 14 14 15 15 15 16 18 18 18 18 16 15 15 15 16 18 16 18 18 16 18 18 16 16 15 16 16 16 18 19 19 20 20 21 22 24 26 25 26 27 28
8 7 5 7 6 4 5 4 3 3 2 2 1 1 2 1 1 3 3 1 2 3 3 2 4 5 2 2 5 7 8 9 10 10 10 11 9 9 10 11 12 14 13 13 15 15 14 16 17 18 18 17 17 18 17 14 15 16 17 19 17 16 18 18 17 18 18 17 17 17 17 17 19 20 20 19 20 22 23 24 25 25 25 27 27
7 9 7 6 5 4 4 4 3 3 3 2 2 2 1 1 2 3 2 1 1 2 2 3 3 3 2 3 7 7 7 8 9 10 10 13 11 9 10 11 13 14 13 14 15 16 15 15 17 18 19 19 18 18 17 14 15 17 18 20 19 16 19 20 18 18 17 16 17 17 17 18 20 21 19 18 21 23 24 24 24 24 24 25 26
5 10 8 6 7 6 5 5 4 3 3 3 2 2 3 1 2 3 4 2 3 3 2 3 3 3 3 5 9 7 6 8 9 10 11 13 12 10 10 11 12 14 14 15 15 16 14 15 18 18 18 20 20 19 18 16 17 18 19 20 19 19 20 19 19 18 15 15 16 18 19 18 19 20 18 20 23 24 25 24 23 23 23 24 25
5 9 8 6 7 7 6 6 5 4 3 2 1 2 4 1 3 2 3 3 3 3 2 2 2 3 2 5 9 6 6 8 8 9 10 12 11 10 11 11 12 15 16 14 15 17 15 14 17 18 18 18 18 19 18 18 19 19 20 20 20 22 21 19 19 18 15 15 15 18 19 18 20 20 19 22 24 24 23 23 24 24 23 23 25
7 7 8 8 8 7 6 6 5 4 4 3 3 2 3 1 1 1 1 2 4 4 4 4 2 2 2 6 8 4 6 7 8 9 8 11 11 10 12 13 14 15 15 15 16 18 16 14 15 16 17 18 18 18 18 18 19 20 20 20 22 23 22 20 17 15 15 15 18 21 21 21 20 19 22 25 24 23 22 23 24 24 23 24 26
8 8 8 8 8 8 7 6 5 5 4 4 4 4 5 3 2 1 0 3 4 3 2 4 3 1 1 4 6 4 5 6 7 8 7 11 12 12 13 12 13 13 13 14 15 16 15 14 14 15 17 17 18 19 17 19 20 20 19 21 23 22 23 21 13 14 19 21 21 21 20 19 18 21 25 25 24 24 22 23 24 24 24 25 27
9 9 8 8 8 8 8 7 6 6 5 4 4 5 5 4 3 3 3 5 6 7 3 2 4 2 2 4 3 4 5 5 6 7 7 8 9 11 12 11 11 11 12 13 14 16 17 16 14 15 17 16 17 17 16 20 20 18 18 21 22 22 23 18 15 20 23 21 19 19 20 19 19 23 25 24 25 24 22 24 25 25 25 26 28
10 9 9 8 8 9 8 8 7 7 6 5 5 6 7 7 8 5 5 5 3 4 5 1 1 1 2 3 3 4 5 5 6 6 8 6 4 9 10 10 11 10 11 13 13 15 17 17 14 15 18 16 18 16 16 21 20 18 19 19 20 21 22 18 21 25 23 21 19 19 20 20 21 23 23 24 25 23 23 25 26 26 26 27 29
10 10 10 10 9 9 9 8 8 8 8 8 8 9 9 8 7 4 5 7 5 3 4 4 3 1 3 2 3 5 5 6 6 5 7 6 2 7 9 10 11 10 11 12 12 14 15 16 13 14 16 17 19 17 19 22 17 15 15 15 18 21 21 19 25 28 23 22 21 19 21 21 21 22 22 25 27 24 22 22 24 26 26 27 28
11 11 10 11 10 9 9 9 9 8 9 9 7 8 7 3 2 4 4 4 3 3 3 3 1 3 2 2 4 5 3 6 8 6 7 6 2 8 9 10 11 10 11 12 12 13 14 16 14 15 16 17 17 16 20 20 14 13 12 10 11 16 18 17 25 27 20 21 23 20 22 21 20 23 23 23 27 27 23 21 23 24 25 26 27
11 11 11 11 10 10 9 9 9 8 8 8 5 5 6 4 4 3 4 7 5 2 1 0 2 3 3 3 4 4 3 6 9 6 7 5 6 9 9 9 10 9 10 11 11 12 12 14 14 15 15 15 14 16 19 18 16 16 11 6 6 8 10 11 20 23 18 21 21 20 22 20 20 25 24 22 25 28 24 22 22 23 24 25 25
11 11 11 11 11 10 10 9 9 8 7 7 6 5 5 5 3 3 3 5 5 2 3 5 6 7 6 5 4 4 4 6 7 6 7 7 8 8 8 11 11 9 11 10 11 12 12 13 13 14 14 13 13 15 17 18 20 16 7 4 5 6 5 7 12 15 19 22 20 21 23 20 23 26 23 21 23 26 25 22 22 24 24 24 23
12 11 12 11 10 11 10 9 9 8 7 7 7 6 5 4 3 2 3 4 3 4 6 9 9 7 5 5 5 5 4 6 7 6 8 8 7 8 8 10 10 11 12 10 11 13 12 13 13 13 14 14 14 14 14 17 20 18 10 5 5 5 4 8 10 9 17 23 21 23 23 21 26 26 22 21 20 22 23 21 23 25 24 24 23
12 12 12 11 10 11 11 10 9 8 7 7 7 7 6 6 5 5 6 7 7 8 8 6 4 3 5 4 3 5 6 8 7 6 8 8 7 8 8 9 10 10 11 10 11 12 11 12 13 12 12 13 14 13 14 16 17 18 17 12 8 8 8 8 7 7 14 20 20 22 23 23 26 24 22 21 17 20 21 20 24 26 24 24 23
12 12 11 11 11 11 11 10 9 8 7 7 8 7 7 7 8 8 8 8 7 7 5 4 4 4 6 5 3 7 9 8 6 5 7 7 7 7 7 9 9 10 10 10 10 10 10 10 11 11 10 11 12 11 12 15 14 14 18 19 14 15 15 10 6 5 9 14 19 21 22 23 24 23 25 22 15 18 20 21 25 25 24 24 23
12 12 12 11 11 11 11 11 9 8 8 8 8 8 7 7 8 8 7 7 7 7 5 4 4 4 6 6 6 8 9 6 3 5 7 7 7 7 8 8 8 9 9 9 10 10 10 10 11 11 9 9 9 8 10 13 14 12 17 21 17 16 18 15 12 9 5 7 12 16 21 25 23 23 26 21 15 18 20 20 24 24 23 24 23
13 13 13 12 12 12 11 11 10 9 8 9 9 8 8 7 7 8 8 8 8 7 6 5 5 4 5 6 7 8 8 5 4 6 6 6 8 7 7 8 7 8 7 8 10 10 10 9 10 12 11 9 7 6 8 11 13 13 16 19 17 15 16 15 15 13 8 6 7 9 14 20 21 23 28 21 13 17 19 19 25 26 23 22 22
14 14 13 13 13 12 12 12 10 9 9 9 9 9 8 8 7 8 8 8 7 7 5 5 5 5 7 8 8 7 7 6 5 6 5 6 7 6 6 7 7 8 7 8 10 10 10 9 9 11 12 12 8 7 9 10 11 13 14 16 15 13 11 10 11 13 9 7 7 6 9 12 12 17 26 24 13 14 18 20 26 29 24 20 21
15 14 14 14 13 13 13 12 11 10 10 10 9 9 9 8 8 8 8 8 7 6 6 6 7 8 9 9 7 6 6 7 7 6 6 7 7 6 6 7 7 8 8 9 9 10 10 9 9 9 9 12 9 7 10 10 11 12 12 14 14 13 11 8 8 12 9 6 6 6 8 11 11 12 21 25 16 13 17 22 26 28 22 17 21
Wind_Direction
121 119 122 119 114 108 106 99 100 100 93 42 15 14 17 20 22 27 34 39 38 39 41 40 41 40 42 45 44 42 37 32 32 30 28 28 29 24 18 21 20 17 19 19 7 3 1 351 355 352 351 355 354 356 1 1 354 351 349 349 347 344 345 340 333 333 332 325 318 314 314 309 304 303 297 299 316 329 337 340 342 339 335 329 325
123 118 114 113 111 107 106 106 108 105 90 33 23 27 29 31 32 36 39 41 40 39 40 41 42 45 46 46 45 40 36 30 28 24 23 24 24 22 19 21 14 14 16 6 0 2 1 351 350 351 349 352 355 0 5 5 359 354 350 349 347 347 348 344 338 335 332 318 312 314 314 312 308 300 286 302 333 340 348 346 344 339 334 330 327
120 113 106 110 110 106 108 108 108 104 59 35 35 40 42 44 44 42 40 38 39 38 37 39 39 41 43 43 41 38 33 25 23 19 19 20 19 20 16 16 11 10 9 2 359 357 0 0 356 358 355 351 354 358 359 360 359 354 351 350 348 347 345 346 341 333 327 317 314 314 316 319 319 315 277 309 337 345 348 346 346 338 333 331 330
115 111 107 112 110 111 110 108 109 89 44 47 51 52 54 54 49 44 43 39 36 37 35 36 36 34 34 36 36 32 23 13 9 6 9 12 13 14 10 8 5 359 353 356 358 357 3 6 4 3 357 352 350 350 351 351 351 352 349 350 352 348 346 347 338 330 324 319 317 311 316 324 333 35 87 326 329 329 333 340 348 343 336 332 332
115 111 113 114 110 111 110 112 106 67 60 63 62 63 62 54 46 43 39 35 36 32 26 28 33 33 32 28 27 19 7 0 356 349 353 5 7 5 3 357 353 351 346 350 359 6 11 6 2 357 351 348 346 346 343 341 344 348 346 348 351 350 347 341 332 327 323 320 321 313 317 330 353 43 12 339 344 330 333 341 352 347 336 332 332
109 111 111 111 110 111 113 112 92 72 75 72 72 70 62 53 42 39 29 23 28 22 15 22 29 29 28 17 9 5 0 3 6 359 345 348 360 357 356 356 352 357 357 358 6 9 10 7 357 349 346 342 341 342 339 340 342 342 344 347 346 346 342 334 328 324 320 319 323 321 321 341 6 17 351 344 359 349 353 351 354 347 334 331 331
105 115 112 110 110 110 109 102 86 81 84 78 78 69 56 48 39 34 21 19 24 22 23 24 23 21 19 9 3 0 2 10 15 18 16 355 357 4 7 12 10 11 10 7 10 2 358 360 355 348 344 339 339 343 344 343 340 342 346 345 341 339 340 331 325 323 320 316 316 323 325 0 0 23 46 22 21 10 2 354 352 347 334 329 328
111 115 116 115 111 104 102 96 85 84 89 85 72 61 49 36 32 31 20 22 23 21 26 21 18 16 11 8 5 2 5 15 20 27 36 35 24 25 23 19 16 11 5 0 0 355 348 347 348 346 342 340 341 342 346 346 336 341 344 341 340 338 340 331 326 324 323 320 309 314 330 357 342 24 65 20 14 4 352 348 346 344 335 327 325
119 123 124 113 110 106 103 96 87 88 89 79 65 56 44 28 22 26 21 19 17 18 19 12 15 13 10 7 6 5 9 20 27 29 34 35 31 29 22 14 8 0 354 349 348 348 344 339 340 339 339 341 342 338 341 350 342 337 337 338 346 344 339 333 326 319 318 317 303 313 349 339 329 42 31 356 355 352 347 345 343 342 335 327 323
126 131 125 107 106 102 100 96 90 88 82 70 63 54 35 26 22 26 19 13 14 19 17 11 14 10 9 7 7 9 15 25 25 23 23 21 20 16 9 4 357 351 346 342 340 340 338 337 340 339 343 344 344 344 336 344 343 339 336 331 340 337 332 331 323 316 316 317 317 341 342 331 351 33 357 348 345 343 344 344 343 339 331 325 322
127 124 120 112 107 104 101 96 91 83 76 67 53 45 29 21 26 28 16 16 15 15 18 18 17 9 6 6 8 8 14 21 16 13 12 8 7 2 358 354 350 349 345 342 340 339 340 341 344 344 348 348 345 350 342 341 342 340 337 328 331 330 327 327 321 315 314 318 331 334 326 349 33 5 350 345 342 343 343 342 342 336 328 325 323
121 117 120 118 113 110 106 94 88 76 64 57 42 30 22 18 27 26 15 19 17 14 17 16 17 13 10 7 8 11 12 11 8 4 3 1 358 356 355 353 351 352 351 351 351 349 351 348 348 347 344 346 344 347 345 342 341 337 335 331 328 327 326 322 320 316 314 319 321 321 333 6 5 351 349 347 348 346 342 342 340 334 329 327 325
123 127 130 129 128 120 113 103 86 69 49 33 29 19 15 22 30 25 19 17 16 19 16 15 15 17 18 17 13 11 11 5 0 357 356 357 354 355 357 357 357 357 358 358 358 357 354 348 344 342 339 339 338 338 338 337 337 334 330 328 325 325 322 318 319 313 314 316 308 330 351 346 351 353 352 350 346 339 340 341 337 332 330 327 325
132 140 141 141 138 127 112 94 85 63 49 30 23 20 20 34 34 24 22 18 20 19 13 16 15 20 24 22 20 9 6 359 355 354 354 359 359 1 359 360 360 357 358 356 355 353 349 346 339 335 333 328 326 326 327 332 331 330 329 328 326 324 322 318 317 311 310 303 308 354 15 14 9 357 352 346 339 338 342 339 334 332 329 328 326
131 141 147 147 137 138 123 74 62 55 56 64 51 54 56 42 36 27 22 20 20 15 9 15 17 25 24 17 15 6 2 355 354 359 359 3 2 360 359 359 357 356 356 353 351 348 343 339 332 327 324 319 318 321 328 338 338 339 342 345 340 335 334 325 322 314 302 297 320 353 12 24 3 348 345 340 339 344 342 336 333 332 330 329 326
118 118 125 137 137 150 143 85 38 43 70 78 85 89 85 51 36 27 17 17 12 12 14 18 26 21 15 10 3 359 0 1 5 10 6 2 2 357 355 356 355 354 350 348 345 342 339 335 334 331 328 328 326 330 339 347 347 347 353 357 352 351 1 336 328 314 299 310 333 341 346 350 341 336 336 335 341 344 339 336 334 332 331 328 326
111 111 53 105 152 142 142 110 15 35 81 95 107 100 92 63 35 25 13 12 7 16 23 24 32 20 11 358 347 343 353 9 10 8 8 2 4 355 349 351 350 351 351 355 356 356 358 358 360 354 350 348 342 341 342 341 338 343 356 3 357 352 356 327 321 315 307 321 330 329 334 331 329 331 329 334 343 342 338 336 334 333 331 329 327
110 91 35 10 22 95 113 107 51 32 82 123 123 97 85 47 14 27 21 16 13 23 28 29 31 28 25 10 358 327 326 16 6 355 5 8 13 357 351 359 357 2 12 16 16 16 17 15 12 4 356 350 346 339 330 326 320 333 357 6 359 339 334 324 316 315 313 317 323 332 328 323 331 332 329 335 343 341 337 334 333 333 332 331 328
88 71 50 8 8 100 128 97 125 168 131 141 123 68 37 17 19 36 29 22 25 37 38 31 22 23 20 16 18 347 312 21 3 345 354 4 18 11 7 16 14 15 20 21 18 14 6 1 3 1 353 344 340 330 319 316 308 324 353 1 357 339 330 326 321 323 320 317 325 330 320 327 332 332 332 334 341 341 336 332 332 332 332 331 329
113 106 112 56 29 171 191 117 114 138 125 142 110 44 12 6 58 32 23 23 31 41 37 17 4 8 4 6 17 5 344 0 3 352 336 340 353 359 6 14 13 12 8 2 360 0 353 342 346 354 349 337 331 324 315 308 298 304 341 351 347 337 326 317 324 330 320 314 319 314 313 324 328 331 335 336 338 338 335 332 330 331 332 332 330
158 138 126 123 124 162 210 139 126 123 88 99 148 22 338 354 144 20 7 21 29 28 23 357 339 349 0 358 359 13 352 317 355 1 329 312 319 326 338 358 1 359 355 345 336 339 342 334 329 342 346 336 326 321 313 305 291 286 320 334 330 329 321 314 324 319 307 310 314 307 310 319 327 334 336 337 337 336 334 330 328 330 331 331 330
161 148 134 146 148 146 195 130 129 128 128 218 248 263 298 332 159 7 348 24 31 21 13 360 342 336 354 357 348 18 355 317 351 350 317 299 306 308 305 324 345 341 348 344 329 325 337 332 319 330 344 337 328 324 320 320 312 296 309 315 313 314 309 312 319 309 301 306 305 301 307 321 332 336 336 336 337 334 333 330 327 330 330 330 330
154 137 126 131 158 159 172 134 129 163 213 207 168 57 338 330 164 6 341 27 28 19 9 8 10 354 352 354 348 6 349 320 351 335 311 295 292 300 294 300 326 322 342 347 325 319 339 331 318 325 339 336 331 332 333 336 329 311 308 307 307 304 302 309 312 308 307 305 303 303 311 327 333 333 334 336 337 334 332 330 327 329 330 330 330
110 113 117 114 154 155 153 135 134 195 235 222 175 88 75 243 339 28 5 18 15 2 9 30 50 15 354 351 345 353 341 325 355 340 329 318 304 313 304 298 315 309 333 351 334 331 339 332 329 331 333 329 327 333 335 332 326 320 312 305 304 301 303 308 308 308 308 308 311 314 317 326 330 331 332 335 336 331 329 330 328 329 329 329 329
95 134 126 118 150 154 152 153 175 194 222 257 147 94 300 270 3 28 340 11 23 13 20 26 34 17 354 354 344 341 340 339 353 346 346 348 340 340 329 324 327 320 341 348 339 346 340 335 341 336 328 323 322 328 327 321 323 324 313 303 302 301 301 306 309 309 306 306 310 317 318 319 327 332 334 335 332 327 326 328 329 329 326 328 329
143 191 125 116 149 156 147 156 183 193 218 324 323 179 305 9 62 20 340 13 32 24 38 12 13 22 3 0 353 341 342 352 346 341 352 357 353 351 347 347 343 346 356 343 335 348 345 337 337 334 331 327 327 329 324 322 324 320 312 306 302 295 296 309 311 307 302 298 302 313 309 309 326 335 333 331 327 321 323 326 328 326 325 327 329
182 123 100 99 133 140 140 165 177 179 215 306 285 245 172 52 42 33 21 29 18 22 43 17 359 27 15 8 9 351 343 357 350 341 353 0 355 351 354 352 346 356 356 344 341 345 347 339 334 337 335 334 335 333 330 326 322 319 314 309 306 301 308 314 306 303 299 292 297 308 305 311 330 335 328 324 323 321 320 322 323 323 324 326 328
133 103 128 127 132 144 162 193 166 165 196 173 274 299 141 93 350 118 59 12 16 27 32 21 5 22 22 8 15 3 346 356 356 347 352 358 357 351 356 354 348 355 350 344 347 344 343 339 338 340 335 336 336 335 331 324 324 322 315 313 319 323 319 309 301 302 300 297 303 305 313 328 331 328 321 319 321 321 319 318 319 320 322 324 327
118 118 149 139 144 140 161 203 143 183 261 161 269 348 89 320 326 129 6 12 55 45 22 25 9 18 24 6 9 3 346 359 354 344 350 353 354 353 352 354 351 353 348 345 351 348 342 338 342 342 335 338 336 333 328 324 330 324 322 330 327 321 313 308 306 301 297 302 310 315 329 331 324 321 317 318 320 319 318 318 320 322 322 323 326
162 146 169 152 143 139 163 186 144 162 143 192 269 39 157 297 323 67 43 53 38 342 149 67 16 18 25 6 7 1 351 13 1 342 349 351 352 359 352 352 355 356 350 346 350 349 343 340 344 342 336 338 337 332 325 326 331 326 335 338 325 319 317 315 310 301 300 308 316 327 330 324 320 316 315 320 320 320 321 319 323 324 322 323 326
154 160 196 154 135 149 160 160 181 157 148 221 284 46 249 309 337 47 75 60 5 291 234 67 34 21 24 5 4 7 357 7 3 342 346 350 351 356 351 355 359 358 351 344 346 345 342 342 347 344 337 338 335 328 326 330 331 331 339 332 324 328 326 319 311 307 309 314 321 329 328 324 322 319 319 323 321 323 323 322 323 323 323 323 325
150 174 191 137 132 163 156 150 173 161 210 256 279 118 248 137 156 52 56 38 348 333 12 47 30 359 352 23 7 4 1 356 356 353 342 339 348 349 350 2 2 354 348 345 345 345 343 344 351 344 338 342 336 329 332 335 334 337 338 328 326 330 326 318 313 312 313 319 331 334 329 328 325 324 325 324 324 326 325 323 323 323 324 325 327
162 171 153 122 137 162 144 133 114 137 200 267 206 194 254 260 106 47 31 321 317 4 30 17 11 359 314 102 36 6 4 356 352 1 345 329 340 351 354 3 1 349 346 348 345 346 347 348 352 344 338 340 334 332 332 334 342 342 339 330 327 329 327 322 318 317 319 322 327 326 326 326 324 325 324 324 327 327 324 323 324 324 325 327 329
170 154 140 133 157 159 141 140 135 155 158 203 217 164 180 305 40 57 31 30 348 345 0 325 315 27 39 105 69 20 358 1 355 358 344 328 339 357 356 358 357 346 344 353 347 343 346 350 351 343 341 338 331 332 331 338 350 344 340 330 324 334 333 326 318 313 315 319 322 326 325 321 322 323 323 331 333 328 325 325 327 327 328 329 331
155 136 141 150 157 153 152 157 169 173 141 184 206 134 179 280 36 72 50 19 324 316 356 337 310 13 63 83 56 24 350 357 356 352 339 331 345 357 352 356 353 346 353 358 344 337 347 358 352 342 342 339 332 334 335 348 355 344 337 327 328 341 335 323 314 312 318 319 320 322 315 314 321 324 331 340 338 331 328 330 333 334 335 334 334
147 132 146 158 156 157 164 165 169 167 148 177 134 124 201 296 9 10 24 351 315 334 340 317 326 354 39 56 36 16 350 350 348 350 343 339 348 350 350 1 355 351 1 356 336 336 348 1 353 341 339 336 335 336 338 349 351 342 335 332 338 340 329 319 315 319 322 316 324 329 324 326 327 328 339 343 338 333 332 335 336 338 342 339 336
158 148 156 163 165 163 169 169 165 168 159 159 144 147 191 209 27 170 51 328 307 336 341 303 332 2 316 17 19 1 344 344 344 347 344 343 347 350 355 2 354 350 356 348 338 342 348 355 350 344 339 335 337 336 338 351 348 338 336 338 339 333 324 316 311 320 329 336 348 345 336 332 329 337 347 344 338 334 336 340 338 336 338 339 337
161 166 165 167 171 165 172 179 170 173 169 160 178 193 195 227 253 159 353 306 269 249 343 317 310 320 226 13 357 340 344 337 343 349 347 342 344 355 358 355 347 344 347 344 343 341 340 345 347 349 342 338 341 336 343 356 346 334 337 339 335 330 322 315 324 353 356 356 352 342 334 329 334 347 348 343 339 338 341 342 341 338 335 337 337
161 169 166 169 173 167 173 181 179 180 180 175 199 204 188 219 230 182 238 274 246 205 182 335 320 301 78 41 338 340 355 332 336 347 346 334 336 349 348 343 339 338 343 342 340 336 336 343 354 357 344 340 342 335 348 354 340 334 341 340 335 331 324 330 8 15 2 355 347 343 339 337 343 348 346 345 344 343 343 342 343 342 335 336 338
158 166 169 177 176 170 174 179 185 186 183 189 197 197 195 218 226 203 204 233 249 201 183 180 305 316 32 32 347 345 342 329 328 328 331 317 326 347 336 335 337 336 340 337 335 334 336 341 352 358 346 343 339 339 355 349 336 336 340 338 338 336 332 351 18 11 2 357 351 348 344 342 344 347 349 347 345 342 341 343 343 343 339 337 341
157 167 171 180 178 174 180 181 187 189 190 197 204 210 210 214 234 252 221 203 197 237 247 208 185 42 29 2 324 315 309 323 309 293 313 295 319 356 335 334 335 333 335 333 333 332 334 334 343 2 354 342 337 346 357 347 341 341 337 340 343 342 339 359 11 0 358 2 358 353 348 347 345 351 352 345 347 344 339 345 344 343 341 339 342
161 171 173 180 179 178 184 185 187 190 200 211 221 233 239 246 290 293 267 247 194 222 252 178 132 355 348 301 298 286 296 313 289 281 306 286 16 358 332 328 329 332 333 330 331 329 334 335 348 14 0 341 339 351 354 348 349 342 333 343 344 342 341 357 2 347 348 1 357 353 348 346 348 353 350 343 350 349 341 345 345 342 340 339 343
164 170 176 179 179 183 185 187 189 191 203 217 227 237 252 278 318 331 315 341 13 39 307 38 358 306 251 255 275 264 291 306 297 307 315 318 6 345 323 322 322 328 325 319 324 329 336 335 351 11 354 343 347 349 350 349 349 341 337 348 340 339 338 352 353 340 346 358 352 349 344 343 351 353 348 341 346 349 347 346 348 347 341 341 345
169 171 177 179 181 187 187 188 192 193 198 207 210 217 236 256 286 322 311 329 356 7 312 279 252 237 241 256 260 262 281 298 307 314 310 325 343 325 319 322 318 324 321 318 327 331 336 335 352 7 351 353 354 345 349 349 348 348 347 343 330 334 334 344 344 339 348 348 344 347 342 346 353 349 348 343 338 348 355 352 353 353 346 345 346
176 175 177 181 184 186 189 190 190 194 199 199 200 204 213 232 243 273 286 299 289 251 261 264 240 226 258 269 261 282 290 291 300 302 307 319 323 316 319 317 314 320 321 326 332 330 334 337 352 3 353 357 353 344 350 349 347 350 352 353 346 333 328 344 341 337 344 341 342 346 343 348 350 345 346 344 338 349 358 356 356 356 351 350 348
178 176 175 182 185 183 187 188 188 192 196 196 195 198 204 211 207 207 223 230 233 232 240 267 260 258 312 305 277 293 288 281 280 287 302 307 310 314 310 306 309 314 320 330 328 326 333 336 342 352 356 354 350 350 352 348 347 348 347 352 357 337 324 345 349 330 334 336 341 344 343 344 344 345 344 341 344 353 359 0 359 357 351 352 352
174 172 172 180 182 181 184 183 186 190 191 193 192 195 202 210 215 218 228 233 246 255 255 289 292 283 300 306 293 285 279 270 261 279 300 303 307 310 304 302 305 310 323 331 325 325 332 333 328 338 356 350 346 353 344 339 343 345 342 341 347 345 336 346 354 327 326 332 338 340 340 340 343 347 340 338 351 359 1 4 3 359 351 354 358
171 168 171 178 177 179 182 180 184 188 189 192 190 196 203 212 224 233 248 256 263 273 276 279 270 255 268 280 286 284 282 276 271 292 301 304 305 303 301 302 305 311 319 325 324 324 328 325 316 326 348 341 335 345 338 338 338 341 346 339 341 350 345 346 348 341 330 323 332 338 338 340 345 347 340 343 4 9 8 10 9 4 354 359 4
169 169 172 174 175 177 179 181 184 187 188 189 190 201 207 214 225 229 242 251 254 262 270 267 249 235 251 260 265 276 293 299 290 291 293 299 298 294 299 305 314 317 319 323 323 322 323 322 318 325 336 333 330 344 344 342 336 342 350 336 335 350 348 342 343 344 340 326 331 335 335 340 345 345 342 347 12 19 19 20 13 5 1 7 9
171 173 172 172 174 175 178 181 184 187 189 191 195 203 209 217 224 228 236 244 247 249 256 264 250 237 247 251 246 252 273 281 279 290 294 293 293 292 301 309 316 319 322 324 319 321 325 323 321 323 330 331 336 357 352 342 337 341 340 327 334 354 345 331 342 347 343 333 331 329 332 339 340 340 340 343 5 31 31 24 15 8 8 17 13
172 173 172 174 176 175 179 183 186 190 189 190 197 201 208 216 222 229 236 242 250 246 237 250 256 244 237 238 237 236 252 266 272 283 284 281 288 296 299 303 311 316 320 321 318 320 323 318 310 311 322 324 328 356 346 333 331 332 336 336 344 348 327 317 348 346 338 332 331 330 333 333 330 330 337 342 358 42 38 20 15 13 13 21 16